Albertville, AL

10:32 AM CDT on August 28, 2016 (GMT -0500)
Albertville

Weather History for K8A0 - December, 2013

Change the Weather History Date:

Monday, December 23, 2013

  Actual Average (KGAD) Record (KGAD)
Temperature  
Mean Temperature 42 °F -  
Max Temperature 53 °F 48 °F 72 °F (1933)
Min Temperature 32 °F 28 °F 14 °F (2000)
Degree Days  
Heating Degree Days 22    
Moisture  
Dew Point 33 °F    
Average Humidity 92    
Maximum Humidity 100    
Minimum Humidity 87    
Precipitation  
Precipitation 0.01 in - - ()
Sea Level Pressure  
Sea Level Pressure 30.25 in    
Wind  
Wind Speed 9 mph (NNW)    
Max Wind Speed 16 mph    
Max Gust Speed 22 mph    
Visibility 8 miles    
Events Rain    
Averages and records for this station are not official NWS values.
T = Trace of Precipitation, MM = Missing Value Source: NWS Daily Summary

Daily Weather History Graph

Daily Weather History Graph

Search for Another Location

Airport or City:

Trip Planner

Search our weather history database for the weather conditions in past years. The results will help you decide how hot, cold, wet, or windy it might be!

Date:

Astronomy

Dec. 23, 2013 Rise Set
Actual Time 6:48 AM CST 4:40 PM CST
Civil Twilight 6:20 AM CST 5:08 PM CST
Nautical Twilight 5:48 AM CST 5:39 PM CST
Astronomical Twilight 5:18 AM CST 6:10 PM CST
Moon 10:34 PM CST (12/23) 10:27 AM CST (12/23)
Length of Visible Light 10h 48m
Length of Day
9h 52m
Waning Gibbous, 68% of the Moon is Illuminated
Dec 23
Waning Gibbous
Dec 25
Last Quarter
Jan 1
New
Jan 7
First Quarter
Jan 15
Full

Hourly Weather History & Observations

Time (CST) Temp. Windchill Dew Point Humidity Pressure Visibility Wind Dir Wind Speed Gust Speed Precip Events Conditions
12:15 AM 51.8 °F - - N/A% 30.08 in 3.0 mi South 6.9 mph - 0.01 in Rain Light Rain
12:35 AM 51.8 °F - - N/A% 30.08 in 5.0 mi South 4.6 mph - 0.01 in   Light Drizzle
12:55 AM 51.8 °F - - N/A% 30.09 in 5.0 mi SSW 4.6 mph - 0.01 in Rain Light Rain
1:15 AM 51.8 °F - - N/A% 30.07 in 5.0 mi West 3.5 mph - N/A   Haze
1:35 AM 51.8 °F - - N/A% 30.07 in 5.0 mi WSW 5.8 mph - N/A   Haze
1:55 AM 51.8 °F - - N/A% 30.07 in 5.0 mi WSW 5.8 mph - N/A   Haze
2:15 AM 53.6 °F - - N/A% 30.07 in 4.0 mi WSW 6.9 mph - N/A   Haze
2:35 AM 53.6 °F - - N/A% 30.08 in 4.0 mi WSW 5.8 mph - N/A   Haze
2:55 AM 51.8 °F - - N/A% 30.09 in 4.0 mi NW 11.5 mph 20.7 mph N/A Rain Rain
3:15 AM 50.0 °F - - N/A% 30.10 in 7.0 mi WNW 8.1 mph - N/A   Overcast
3:35 AM 50.0 °F - - N/A% 30.12 in 7.0 mi NW 12.7 mph 18.4 mph N/A   Overcast
3:55 AM 48.2 °F - - N/A% 30.12 in 10.0 mi WNW 10.4 mph - N/A   Overcast
4:15 AM 46.4 °F 40.7 °F - N/A% 30.13 in 7.0 mi NW 12.7 mph 18.4 mph N/A   Overcast
4:35 AM 46.4 °F 41.1 °F - N/A% 30.13 in 7.0 mi NNW 11.5 mph 17.3 mph N/A   Overcast
4:55 AM 44.6 °F 39.2 °F - N/A% 30.15 in 10.0 mi NW 10.4 mph 19.6 mph N/A   Overcast
5:15 AM 44.6 °F 39.7 °F - N/A% 30.16 in 5.0 mi NW 9.2 mph - N/A   Haze
5:35 AM 42.8 °F 36.2 °F - N/A% 30.16 in 4.0 mi NW 12.7 mph 16.1 mph N/A   Haze
5:55 AM 42.8 °F 38.0 °F - N/A% 30.17 in 3.0 mi NNW 8.1 mph - N/A   Overcast
6:15 AM 42.8 °F 37.0 °F - N/A% 30.19 in 10.0 mi NNW 10.4 mph 17.3 mph N/A   Overcast
6:35 AM 42.8 °F 38.0 °F - N/A% 30.20 in 10.0 mi NNW 8.1 mph - N/A   Overcast
6:55 AM 42.8 °F 37.0 °F - N/A% 30.21 in 10.0 mi NNW 10.4 mph - N/A   Overcast
7:15 AM 42.8 °F 36.6 °F - N/A% 30.21 in 10.0 mi NNW 11.5 mph - N/A   Overcast
7:35 AM 42.8 °F 37.5 °F - N/A% 30.23 in 10.0 mi NNW 9.2 mph 18.4 mph N/A   Overcast
7:55 AM 41.0 °F 34.7 °F - N/A% 30.24 in 10.0 mi NNW 10.4 mph 16.1 mph N/A   Overcast
8:15 AM 41.0 °F 33.5 °F - N/A% 30.24 in 7.0 mi NNW 13.8 mph - N/A   Overcast
8:35 AM 39.2 °F 31.2 °F - N/A% 30.25 in 3.0 mi NNW 13.8 mph - N/A   Overcast
8:55 AM 39.2 °F 31.2 °F - N/A% 30.26 in 2.5 mi NNW 13.8 mph 19.6 mph N/A   Overcast
9:15 AM 37.4 °F 28.9 °F - N/A% 30.27 in 7.0 mi NNW 13.8 mph 19.6 mph N/A   Overcast
9:35 AM 37.4 °F 28.9 °F - N/A% 30.28 in 10.0 mi NNW 13.8 mph 18.4 mph N/A   Overcast
9:55 AM 37.4 °F 28.9 °F - N/A% 30.28 in 7.0 mi North 13.8 mph 18.4 mph N/A   Overcast
10:15 AM 37.4 °F 29.8 °F - N/A% 30.29 in 10.0 mi NNW 11.5 mph - N/A   Overcast
10:35 AM 37.4 °F 28.9 °F - N/A% 30.29 in 7.0 mi North 13.8 mph - N/A   Overcast
10:55 AM 37.4 °F 30.8 °F - N/A% 30.29 in 7.0 mi NNW 9.2 mph - N/A   Overcast
11:15 AM 37.4 °F 30.3 °F - N/A% 30.29 in 10.0 mi NNW 10.4 mph - N/A   Overcast
11:35 AM 37.4 °F 29.8 °F - N/A% 30.29 in 10.0 mi NNW 11.5 mph - N/A   Overcast
11:55 AM 37.4 °F 30.8 °F - N/A% 30.28 in 10.0 mi North 9.2 mph - N/A   Overcast
12:15 PM 37.4 °F 29.8 °F 37.4 °F 100% 30.28 in 10.0 mi North 11.5 mph - N/A   Overcast
12:35 PM 37.4 °F 29.8 °F 37.4 °F 100% 30.27 in 10.0 mi NNW 11.5 mph 16.1 mph N/A   Overcast
12:55 PM 37.4 °F 29.3 °F 37.4 °F 100% 30.27 in 10.0 mi NNW 12.7 mph - N/A   Overcast
1:15 PM 37.4 °F 29.3 °F 37.4 °F 100% 30.27 in 10.0 mi NNW 12.7 mph 17.3 mph N/A   Overcast
1:35 PM 37.4 °F 28.2 °F 35.6 °F 93% 30.27 in 10.0 mi NNW 16.1 mph 21.9 mph N/A   Overcast
1:55 PM 37.4 °F 29.8 °F 35.6 °F 93% 30.27 in 10.0 mi NNW 11.5 mph 19.6 mph N/A   Overcast
2:15 PM 37.4 °F 28.9 °F 35.6 °F 93% 30.27 in 10.0 mi NNW 13.8 mph 18.4 mph N/A   Overcast
2:35 PM 37.4 °F 28.5 °F 35.6 °F 93% 30.28 in 10.0 mi NNW 15.0 mph 21.9 mph N/A   Overcast
2:55 PM 35.6 °F 26.6 °F 35.6 °F 100% 30.28 in 10.0 mi NNW 13.8 mph - N/A   Overcast
3:15 PM 35.6 °F 27.1 °F 33.8 °F 93% 30.29 in 10.0 mi NNW 12.7 mph 18.4 mph N/A   Overcast
3:35 PM 35.6 °F 26.6 °F 33.8 °F 93% 30.29 in 10.0 mi North 13.8 mph - N/A   Overcast
3:55 PM 35.6 °F 27.1 °F 32.0 °F 87% 30.29 in 10.0 mi North 12.7 mph - N/A   Overcast
4:15 PM 35.6 °F 26.2 °F 32.0 °F 87% 30.29 in 10.0 mi North 15.0 mph - N/A   Overcast
4:35 PM 35.6 °F 29.2 °F 32.0 °F 87% 30.29 in 10.0 mi North 8.1 mph - N/A   Overcast
4:55 PM 35.6 °F 27.5 °F 32.0 °F 87% 30.29 in 10.0 mi North 11.5 mph 17.3 mph N/A   Overcast
5:15 PM 35.6 °F 27.5 °F 32.0 °F 87% 30.31 in 10.0 mi NNW 11.5 mph 19.6 mph N/A   Overcast
5:35 PM 35.6 °F 26.6 °F 32.0 °F 87% 30.31 in 10.0 mi NNW 13.8 mph 19.6 mph N/A   Overcast
5:55 PM 35.6 °F 27.1 °F 32.0 °F 87% 30.32 in 10.0 mi NNW 12.7 mph - N/A   Overcast
6:15 PM 35.6 °F 27.1 °F 32.0 °F 87% 30.32 in 10.0 mi NNW 12.7 mph 18.4 mph N/A   Overcast
6:35 PM 35.6 °F 28.0 °F 32.0 °F 87% 30.32 in 10.0 mi NNW 10.4 mph - N/A   Overcast
6:55 PM 33.8 °F 25.8 °F 32.0 °F 93% 30.33 in 10.0 mi North 10.4 mph 17.3 mph N/A   Overcast
7:15 PM 33.8 °F 25.3 °F 32.0 °F 93% 30.34 in 10.0 mi North 11.5 mph 18.4 mph N/A   Mostly Cloudy
7:35 PM 33.8 °F 26.4 °F 32.0 °F 93% 30.34 in 10.0 mi North 9.2 mph - N/A   Mostly Cloudy
7:55 PM 33.8 °F 26.4 °F 32.0 °F 93% 30.34 in 10.0 mi North 9.2 mph - N/A   Mostly Cloudy
8:15 PM 33.8 °F 27.0 °F 32.0 °F 93% 30.34 in 10.0 mi NNW 8.1 mph - N/A   Scattered Clouds
8:35 PM 32.0 °F 25.6 °F 32.0 °F 100% 30.34 in 10.0 mi NNW 6.9 mph - N/A   Clear
8:55 PM 33.8 °F 26.4 °F 32.0 °F 93% 30.35 in 10.0 mi NNW 9.2 mph - N/A   Mostly Cloudy
9:15 PM 33.8 °F 26.4 °F 32.0 °F 93% 30.35 in 10.0 mi North 9.2 mph - N/A   Overcast
9:35 PM 33.8 °F 23.9 °F 32.0 °F 93% 30.36 in 10.0 mi North 15.0 mph 19.6 mph N/A   Overcast
9:55 PM 33.8 °F 25.8 °F 32.0 °F 93% 30.36 in 10.0 mi North 10.4 mph - N/A   Overcast
10:15 PM 33.8 °F 24.3 °F 30.2 °F 87% 30.37 in 10.0 mi NNW 13.8 mph - N/A   Overcast
10:35 PM 32.0 °F 23.0 °F 30.2 °F 93% 30.36 in 10.0 mi North 11.5 mph 16.1 mph N/A   Scattered Clouds
10:55 PM 32.0 °F 25.6 °F 30.2 °F 93% 30.36 in 10.0 mi NNW 6.9 mph - N/A   Clear
11:15 PM 32.0 °F 24.8 °F 30.2 °F 93% 30.37 in 10.0 mi NNW 8.1 mph - N/A   Clear
11:35 PM 32.0 °F 23.0 °F 30.2 °F 93% 30.37 in 10.0 mi NNW 11.5 mph 16.1 mph N/A   Clear
11:55 PM 32.0 °F 25.6 °F 30.2 °F 93% 30.37 in 10.0 mi NNW 6.9 mph - N/A   Clear